User: anonymous   Login
Location: Easthampton
(42.2676°N, 72.6690°W)
Time: 05:16:37
(UTC+00:00)
Language:

DUCHIFAT 1 - Orbit

View from above orbital plane
View from above orbital plane
View from above satellite
View from above satellite

Ground track
Ground track

The orbit data is extracted from the following two-line orbital elements,

1 40021U 14033M   24170.88662821  .00011546  00000-0  76619-3 0  9992
2 40021  98.0897 154.8053 0015275  95.5667 264.7302 15.07324615544386
Epoch (UTC): 18 June 2024 21:16:44
Eccentricity: 0.0015275
inclination: 98.0897°
perigee height: 534 km
apogee height: 555 km
right ascension of ascending node: 154.8053°
argument of perigee: 95.5667°
revolutions per day: 15.07324615
mean anomaly at epoch: 264.7302°
orbit number at epoch: 54438

The dashed part of the orbit path shows where the satellite is in the earth's shadow,  

DLR